User: anonymous   Login
Location: Bamazo
(6.7448°N, 10.8189°W)
Time: 11:52:02
(UTC+00:00)
Language:

CZ-4 R/B - Orbit

View from above orbital plane
View from above orbital plane
View from above satellite
View from above satellite

Ground track
Ground track

The orbit data is extracted from the following two-line orbital elements,

1 29507U 06046C   20329.79292156  .00000433  00000-0  38460-4 0  9991
2 29507  97.7209 351.0057 0048320 348.9205  11.0950 15.00573383769461
Epoch (UTC): 24 November 2020 19:01:48
Eccentricity: 0.0048320
inclination: 97.7209°
perigee height: 531 km
apogee height: 598 km
right ascension of ascending node: 351.0057°
argument of perigee: 348.9205°
revolutions per day: 15.00573383
mean anomaly at epoch: 11.0950°
orbit number at epoch: 76946

The dashed part of the orbit path shows where the satellite is in the earth's shadow,  

DLR